When you browse on this site, cookies collect data to enhance your experience and personalize the content and advertising you see.
Visit our Privacy Policy to learn more. By continuing to use the site, you agree to this use of cookies and data.
  • In Deutschland
  • Länderverzeichnis
  • Für 7 Tage
  • Wassertemperatur
  • Satellitenkarten
  • Wetterkarte
  • Widgets
  • user-avatar
    Anmelden

    Stündliche Wetter Suez

    Heute, 13 Dezember, Donnerstag

    Zeit Temperatur Niederschläge Wind Luftdruck Luftfeuchtigkeit
    00:00 +16°C° 0 mm 2 m/S 765 mmHg 75%
    01:00 +15°C° 0 mm 2 m/S 765 mmHg 78%
    02:00 +15°C° 0 mm 1 m/S 765 mmHg 82%
    03:00 +14°C° 0 mm 1 m/S 766 mmHg 83%
    04:00 +14°C° 0 mm 1 m/S 766 mmHg 84%
    05:00 +14°C° 0 mm 1 m/S 766 mmHg 85%
    06:00 +14°C° 0 mm 1 m/S 766 mmHg 82%
    07:00 +15°C° 0 mm 1 m/S 766 mmHg 79%
    08:00 +15°C° 0 mm 1 m/S 766 mmHg 76%
    09:00 +18°C° 0 mm 1 m/S 766 mmHg 69%
    10:00 +18°C° 0 mm 2 m/S 766 mmHg 62%
    11:00 +19°C° 0 mm 2 m/S 766 mmHg 54%
    12:00 +19°C° 0 mm 2 m/S 766 mmHg 51%
    13:00 +20°C° 0 mm 3 m/S 766 mmHg 48%
    14:00 +21°C° 0 mm 3 m/S 766 mmHg 45%
    15:00 +20°C° 0 mm 3 m/S 766 mmHg 48%
    16:00 +19°C° 0 mm 3 m/S 766 mmHg 50%
    17:00 +19°C° 0 mm 3 m/S 766 mmHg 52%
    18:00 +18°C° 0 mm 3 m/S 766 mmHg 55%
    19:00 +18°C° 0 mm 3 m/S 766 mmHg 58%
    20:00 +17°C° 0 mm 3 m/S 766 mmHg 61%
    21:00 +16°C° 0 mm 3 m/S 766 mmHg 64%
    22:00 +16°C° 0 mm 3 m/S 766 mmHg 66%
    23:00 +16°C° 0 mm 3 m/S 767 mmHg 68%

    Morgen, 14 Dezember, Freitag

    Zeit Temperatur Niederschläge Wind Luftdruck Luftfeuchtigkeit
    00:00 +15°C° 0 mm 2 m/S 766 mmHg 70%
    01:00 +15°C° 0 mm 2 m/S 766 mmHg 72%
    02:00 +14°C° 0 mm 2 m/S 766 mmHg 73%
    03:00 +14°C° 0 mm 2 m/S 766 mmHg 74%
    04:00 +14°C° 0 mm 2 m/S 766 mmHg 75%
    05:00 +14°C° 0 mm 2 m/S 766 mmHg 75%
    06:00 +14°C° 0 mm 2 m/S 766 mmHg 72%
    07:00 +14°C° 0 mm 2 m/S 766 mmHg 70%
    08:00 +15°C° 0 mm 2 m/S 766 mmHg 67%
    09:00 +16°C° 0 mm 2 m/S 766 mmHg 59%
    10:00 +18°C° 0 mm 2 m/S 766 mmHg 50%
    11:00 +20°C° 0 mm 3 m/S 766 mmHg 42%
    12:00 +20°C° 0 mm 3 m/S 765 mmHg 38%
    13:00 +21°C° 0 mm 3 m/S 765 mmHg 35%
    14:00 +22°C° 0 mm 4 m/S 764 mmHg 31%
    15:00 +21°C° 0 mm 4 m/S 764 mmHg 33%
    16:00 +20°C° 0 mm 4 m/S 764 mmHg 36%
    17:00 +19°C° 0 mm 4 m/S 764 mmHg 38%
    18:00 +19°C° 0 mm 4 m/S 764 mmHg 41%
    19:00 +18°C° 0 mm 3 m/S 765 mmHg 45%
    20:00 +17°C° 0 mm 3 m/S 765 mmHg 48%
    21:00 +17°C° 0 mm 3 m/S 765 mmHg 51%
    22:00 +16°C° 0 mm 3 m/S 765 mmHg 53%
    23:00 +16°C° 0 mm 3 m/S 765 mmHg 55%

    übermorgen, 15 Dezember, Samstag

    Zeit Temperatur Niederschläge Wind Luftdruck Luftfeuchtigkeit
    00:00 +16°C° 0 mm 3 m/S 764 mmHg 57%
    01:00 +14°C° 0 mm 3 m/S 764 mmHg 59%
    02:00 +14°C° 0 mm 3 m/S 764 mmHg 61%
    03:00 +15°C° 0 mm 2 m/S 763 mmHg 62%
    04:00 +14°C° 0 mm 2 m/S 763 mmHg 63%
    05:00 +14°C° 0 mm 2 m/S 763 mmHg 63%
    06:00 +14°C° 0 mm 2 m/S 763 mmHg 60%
    07:00 +15°C° 0 mm 2 m/S 763 mmHg 58%
    08:00 +15°C° 0 mm 2 m/S 763 mmHg 55%
    09:00 +17°C° 0 mm 2 m/S 763 mmHg 47%
    10:00 +20°C° 0 mm 1 m/S 762 mmHg 40%
    11:00 +22°C° 0 mm 1 m/S 762 mmHg 33%
    12:00 +23°C° 0 mm 1 m/S 762 mmHg 30%
    13:00 +24°C° 0 mm 1 m/S 761 mmHg 27%
    14:00 +25°C° 0 mm 1 m/S 760 mmHg 24%
    15:00 +23°C° 0 mm 1 m/S 760 mmHg 26%
    16:00 +22°C° 0 mm 1 m/S 760 mmHg 29%
    17:00 +20°C° 0 mm 1 m/S 760 mmHg 32%
    18:00 +20°C° 0 mm 1 m/S 760 mmHg 32%
    19:00 +19°C° 0 mm 1 m/S 761 mmHg 33%
    20:00 +19°C° 0 mm 1 m/S 761 mmHg 33%
    21:00 +18°C° 0 mm 1 m/S 761 mmHg 33%
    22:00 +18°C° 0 mm 1 m/S 760 mmHg 32%
    23:00 +18°C° 0 mm 1 m/S 760 mmHg 32%

    16 Dezember, Sonntag

    Zeit Temperatur Niederschläge Wind Luftdruck Luftfeuchtigkeit
    00:00 +18°C° 0 mm 1 m/S 760 mmHg 32%
    01:00 +16°C° 0 mm 2 m/S 760 mmHg 32%
    02:00 +16°C° 0 mm 2 m/S 759 mmHg 32%
    03:00 +16°C° 0 mm 2 m/S 759 mmHg 33%
    04:00 +15°C° 0 mm 2 m/S 759 mmHg 34%
    05:00 +15°C° 0 mm 1 m/S 759 mmHg 36%
    06:00 +15°C° 0 mm 1 m/S 759 mmHg 35%
    07:00 +15°C° 0 mm 1 m/S 760 mmHg 35%
    08:00 +16°C° 0 mm 1 m/S 760 mmHg 35%
    09:00 +18°C° 0 mm 2 m/S 760 mmHg 30%
    10:00 +20°C° 0 mm 3 m/S 760 mmHg 26%
    11:00 +22°C° 0 mm 3 m/S 760 mmHg 22%
    12:00 +22°C° 0 mm 4 m/S 760 mmHg 21%
    13:00 +23°C° 0 mm 4 m/S 759 mmHg 20%
    14:00 +23°C° 0 mm 4 m/S 759 mmHg 19%
    15:00 +22°C° 0 mm 4 m/S 759 mmHg 21%
    16:00 +21°C° 0 mm 3 m/S 759 mmHg 23%
    17:00 +20°C° 0 mm 3 m/S 759 mmHg 24%
    18:00 +19°C° 0 mm 3 m/S 760 mmHg 27%
    19:00 +18°C° 0 mm 3 m/S 760 mmHg 29%
    20:00 +18°C° 0 mm 3 m/S 761 mmHg 31%
    21:00 +17°C° 0 mm 3 m/S 761 mmHg 34%
    22:00 +16°C° 0 mm 3 m/S 761 mmHg 36%
    23:00 +16°C° 0 mm 3 m/S 761 mmHg 39%

    17 Dezember, Montag

    Zeit Temperatur Niederschläge Wind Luftdruck Luftfeuchtigkeit
    00:00 +14°C° 0 mm 3 m/S 761 mmHg 40%
    01:00 +14°C° 0 mm 3 m/S 761 mmHg 41%
    02:00 +13°C° 0 mm 3 m/S 761 mmHg 42%
    03:00 +13°C° 0 mm 3 m/S 761 mmHg 43%
    04:00 +13°C° 0 mm 3 m/S 761 mmHg 44%
    05:00 +13°C° 0 mm 3 m/S 761 mmHg 46%
    06:00 +13°C° 0 mm 3 m/S 762 mmHg 48%
    07:00 +13°C° 0 mm 3 m/S 762 mmHg 50%
    08:00 +14°C° 0 mm 3 m/S 762 mmHg 52%
    09:00 +15°C° 0 mm 4 m/S 762 mmHg 53%
    10:00 +17°C° 0 mm 4 m/S 762 mmHg 53%
    11:00 +17°C° 0 mm 5 m/S 762 mmHg 54%
    12:00 +19°C° 0 mm 5 m/S 762 mmHg 53%
    13:00 +20°C° 0 mm 5 m/S 762 mmHg 52%
    14:00 +20°C° 0 mm 5 m/S 761 mmHg 51%
    15:00 +20°C° 0 mm 4 m/S 762 mmHg 52%
    16:00 +20°C° 0 mm 4 m/S 762 mmHg 53%
    17:00 +19°C° 0 mm 3 m/S 762 mmHg 54%
    18:00 +19°C° 0 mm 3 m/S 763 mmHg 57%
    19:00 +18°C° 0 mm 3 m/S 763 mmHg 59%
    20:00 +18°C° 0 mm 3 m/S 764 mmHg 61%
    21:00 +17°C° 0 mm 3 m/S 764 mmHg 64%
    22:00 +17°C° 0 mm 2 m/S 764 mmHg 68%
    23:00 +16°C° 0 mm 2 m/S 764 mmHg 71%

    18 Dezember, Dienstag

    Zeit Temperatur Niederschläge Wind Luftdruck Luftfeuchtigkeit
    00:00 +16°C° 0 mm 2 m/S 764 mmHg 75%
    01:00 +16°C° 0 mm 2 m/S 765 mmHg 78%
    02:00 +16°C° 0 mm 2 m/S 765 mmHg 81%
    03:00 +15°C° 0 mm 2 m/S 765 mmHg 83%
    04:00 +15°C° 0 mm 2 m/S 765 mmHg 85%
    05:00 +14°C° 0 mm 2 m/S 765 mmHg 86%
    06:00 +15°C° 0 mm 2 m/S 765 mmHg 84%
    07:00 +15°C° 0 mm 2 m/S 766 mmHg 82%
    08:00 +15°C° 0 mm 2 m/S 766 mmHg 79%
    09:00 +17°C° 0 mm 2 m/S 766 mmHg 73%
    10:00 +18°C° 0 mm 2 m/S 766 mmHg 67%
    11:00 +19°C° 0 mm 3 m/S 766 mmHg 61%
    12:00 +20°C° 0 mm 3 m/S 765 mmHg 58%
    13:00 +20°C° 0 mm 3 m/S 765 mmHg 55%
    14:00 +21°C° 0 mm 3 m/S 764 mmHg 52%
    15:00 +20°C° 0 mm 2 m/S 764 mmHg 53%
    16:00 +21°C° 0 mm 1 m/S 764 mmHg 55%
    17:00 +20°C° 0 mm 1 m/S 765 mmHg 57%
    18:00 +20°C° 0 mm 1 m/S 765 mmHg 59%
    19:00 +20°C° 0 mm 1 m/S 765 mmHg 61%
    20:00 +19°C° 0 mm 1 m/S 765 mmHg 62%
    21:00 +19°C° 0 mm 1 m/S 765 mmHg 65%
    22:00 +18°C° 0 mm 1 m/S 765 mmHg 67%
    23:00 +18°C° 0 mm 1 m/S 765 mmHg 69%
    Mehr zeigen